Regional Weather Roundup
Issued by NWS

Home | Current Version | Previous Version | Text Only | Print | Product List | Glossary Off
Versions: 1 2 3 4 5 6 7 8 9 10 11 12 13 14 15 16 17 18 19 20 21 22 23 24 25 26 27 28 29 30 31 32 33 34 35 36 37 38 39 40 41 42 43 44 45 46 47 48 49 50

000
ASUS43 KLSX 291559
RWRMO

WEATHER SUMMARY FOR MISSOURI
NATIONAL WEATHER SERVICE SPRINGFIELD MO
1100 AM CDT WED OCT 29 2014

NOTE: "FAIR" INDICATES FEW OR NO CLOUDS BELOW 12,000 FEET WITH NO
       SIGNIFICANT WEATHER AND/OR OBSTRUCTIONS TO VISIBILITY.
       CURRENT SKY AND/OR WEATHER CONDITIONS ARE NOT AVAILABLE FOR
       CHILLICOTHE AND FARMINGTON.

MOZ001>031-035>038-043-044-053-054-291700-
...NORTHERN AND WESTERN MISSOURI...

CITY           SKY/WX    TMP DP  RH WIND       PRES   REMARKS
KANSAS CTY INT SUNNY     51  36  56 NW6       30.26F
KANSAS C DTWN  SUNNY     52  34  50 NW5       30.27S
LEE`S SUMMIT   SUNNY     52  33  48 N7        30.27S
ST JOSEPH      SUNNY     50  36  58 N3        30.27F
CHILLICOTHE      N/A     51  34  52 NW8       30.26R
KIRKSVILLE     SUNNY     50  34  54 NW10      30.23R

$$
MOZ066>068-077>081-088>096-101>105-291700-
...SOUTHWEST MISSOURI...

CITY           SKY/WX    TMP DP  RH WIND       PRES   REMARKS
SPRINGFIELD    SUNNY     57  37  47 N3        30.24R
JOPLIN         SUNNY     55  40  56 SE5       30.26R

$$
MOZ032>034-039>042-045>050-055>058-069>072-291700-
...CENTRAL MISSOURI...

CITY           SKY/WX    TMP DP  RH WIND       PRES   REMARKS
COLUMBIA       SUNNY     52  35  52 N13       30.24R
JEFFERSON CITY SUNNY     52  35  52 VRB5      30.25R
ROLLA          SUNNY     51  36  56 N9        30.22R
SEDALIA        SUNNY     53  34  48 NW9       30.26S
OSAGE BEACH    SUNNY     54  34  47 CALM      30.25S

$$
MOZ051-052-059>065-291700-
...EAST CENTRAL MISSOURI...

CITY           SKY/WX    TMP DP  RH WIND       PRES   REMARKS
ST LOUIS INTL  SUNNY     54  36  50 NW10      30.21S
SPIRIT OF STL  SUNNY     52  35  52 NW10G20   30.21S
ST CHARLES     SUNNY     51  34  52 W13G21    30.21R

$$
MOZ072>076-082>087-097>100-106>115-291700-
...SOUTH CENTRAL AND SOUTHEAST MISSOURI...

CITY           SKY/WX    TMP DP  RH WIND       PRES   REMARKS
CAPE GIRARDEAU NOT AVBL
FARMINGTON     SUNNY     52  36  54 W7        30.22F
POPLAR BLUFF   SUNNY     61  39  44 N5        30.19S
WEST PLAINS    SUNNY     59  37  44 NE9       30.23S

$$



USA.gov is the U.S. government's official web portal to all federal, state and local government web resources and services.